Meridian, MS

9:55 AM CST on December 14, 2019 (GMT -0600)
Key

Weather History for KMEI - October, 2019

Change the Weather History Date:

Saturday, October 12, 2019

  Actual Average Record
Temperature  
Mean Temperature 60 °F 65 °F  
Max Temperature 66 °F 79 °F 94 °F (1963)
Min Temperature 53 °F 52 °F 36 °F (1951)
Degree Days  
Heating Degree Days 5 3  
Month to date heating degree days 5 22  
Since 1 July heating degree days 5 29  
Cooling Degree Days 0 3  
Month to date cooling degree days 180 52  
Year to date cooling degree days 2812 1975  
Growing Degree Days 10 (Base 50)    
Moisture  
Dew Point 49 °F    
Average Humidity 74    
Maximum Humidity 93    
Minimum Humidity 52    
Precipitation  
Precipitation T in 0.12 in 1.75 in (1986)
Month to date precipitation 1.41 1.38  
Year to date precipitation 44.59 43.77  
Sea Level Pressure  
Sea Level Pressure 30.11 in    
Wind  
Wind Speed 8 mph ()    
Max Wind Speed 18 mph    
Max Gust Speed 23 mph    
Visibility 9.9 miles    
Events Rain    
T = Trace of Precipitation, MM = Missing Value Source: Averaged Metar Reports

Daily Weather History Graph

Daily Weather History Graph

Search for Another Location

Airport or City:

Astronomy

Oct. 12, 2019 Rise Set
Actual Time 6:56 AM CDT 6:26 PM CDT
Civil Twilight 6:31 AM CDT 6:50 PM CDT
Nautical Twilight 6:03 AM CDT 7:19 PM CDT
Astronomical Twilight 5:34 AM CDT 7:47 PM CDT
Moon 6:15 PM CDT (10/12) 5:42 AM CDT (10/12)
Length of Visible Light 12h 18m
Length of Day
11h 29m
Waxing Gibbous, 99% of the Moon is Illuminated
Oct 12
Waxing Gibbous
Oct 13
Full
Oct 21
Last Quarter
Oct 27
New
Nov 4
First Quarter

Hourly Weather History & Observations

Time (CDT) Temp. Dew Point Humidity Pressure Visibility Wind Dir Wind Speed Gust Speed Precip Events Conditions
12:58 AM 63.0 °F 60.1 °F 90% 30.07 in 8.0 mi NNW 6.9 mph - 0.00 in   Overcast
1:58 AM 61.0 °F 57.9 °F 90% 30.07 in 10.0 mi NNW 10.4 mph - N/A   Overcast
2:58 AM 60.1 °F 57.0 °F 90% 30.07 in 10.0 mi North 8.1 mph - N/A   Overcast
3:58 AM 57.0 °F 53.1 °F 87% 30.09 in 9.0 mi NNW 13.8 mph - N/A   Overcast
4:58 AM 55.0 °F 51.1 °F 86% 30.11 in 10.0 mi North 12.7 mph - N/A   Overcast
5:38 AM 55.0 °F 50.0 °F 83% 30.12 in 10.0 mi North 10.4 mph - N/A   Overcast
5:58 AM 55.0 °F 50.0 °F 83% 30.12 in 10.0 mi North 9.2 mph - N/A   Overcast
6:43 AM 54.0 °F 48.0 °F 80% 30.13 in 10.0 mi North 12.7 mph - 0.00 in Rain Light Rain
6:51 AM 54.0 °F 48.0 °F 80% 30.14 in 10.0 mi North 16.1 mph 23.0 mph 0.00 in Rain Light Rain
6:58 AM 53.1 °F 46.0 °F 77% 30.14 in 10.0 mi North 17.3 mph - 0.00 in Rain Light Rain
7:58 AM 54.0 °F 46.0 °F 75% 30.14 in 10.0 mi North 10.4 mph - 0.00 in   Overcast
8:05 AM 54.0 °F 46.0 °F 75% 30.15 in 10.0 mi North 11.5 mph - N/A   Overcast
8:58 AM 54.0 °F 48.0 °F 80% 30.14 in 10.0 mi North 9.2 mph - 0.00 in   Overcast
9:06 AM 54.0 °F 48.0 °F 80% 30.15 in 10.0 mi North 10.4 mph - N/A   Overcast
9:23 AM 55.0 °F 46.9 °F 74% 30.16 in 10.0 mi North 11.5 mph - N/A   Overcast
9:58 AM 55.0 °F 46.0 °F 72% 30.17 in 10.0 mi North 13.8 mph - N/A   Overcast
10:24 AM 57.0 °F 46.9 °F 69% 30.16 in 10.0 mi North 9.2 mph - N/A   Overcast
10:58 AM 57.0 °F 46.9 °F 69% 30.16 in 10.0 mi North 10.4 mph - N/A   Overcast
11:58 AM 59.0 °F 46.9 °F 64% 30.16 in 10.0 mi NNE 3.5 mph - N/A   Overcast
12:58 PM 63.0 °F 48.0 °F 58% 30.14 in 10.0 mi North 8.1 mph - N/A   Overcast
1:58 PM 64.0 °F 48.0 °F 56% 30.12 in 10.0 mi North 8.1 mph - N/A   Overcast
2:58 PM 64.9 °F 48.0 °F 54% 30.09 in 10.0 mi NNE 8.1 mph - N/A   Overcast
3:58 PM 66.0 °F 48.9 °F 54% 30.08 in 10.0 mi NNW 9.2 mph - N/A   Overcast
4:58 PM 66.0 °F 48.9 °F 54% 30.08 in 10.0 mi NNE 8.1 mph - N/A   Mostly Cloudy
5:58 PM 64.9 °F 46.9 °F 52% 30.08 in 10.0 mi NNW 6.9 mph - N/A   Overcast
6:58 PM 62.1 °F 46.0 °F 56% 30.07 in 10.0 mi NE 5.8 mph - N/A   Partly Cloudy
7:58 PM 59.0 °F 51.1 °F 75% 30.08 in 10.0 mi Calm Calm - N/A   Clear
8:58 PM 57.0 °F 51.1 °F 81% 30.08 in 10.0 mi Calm Calm - N/A   Clear
10:58 PM 57.0 °F 52.0 °F 83% 30.05 in 10.0 mi Calm Calm - N/A   Scattered Clouds
11:58 PM 55.0 °F 52.0 °F 89% 30.04 in 10.0 mi NW 3.5 mph - N/A   Clear